ONEWEB-0165, 48233

Orbit data source: Space-Track

ONEWEB-0165, 48233 is a payload satellite owned by One Web (NAA) (UK) in LEO that was launched on Sun, 25 Apr 2021 UTC via a SOYUZ-2-1B launch vehicle from the Vostochny Cosmodrome (VOSTO). Payload-class satellites include a variety of spacecraft equipped with specific instruments for various scientific and technological missions. These include communications satellites like Starlink; space stations such as the ISS; scientific satellites like the Hubble; Earth observation satellites from companies like Planet Labs, Umbra, and HawkEye 360; GPS; miniature CubeSats for education and research; and military/defense satellites.

Loading next visibility...
Identifier
48233, 2021-031Z
Orbit
LEO
Country
Flag of UKUK
Related business
Manufacturer
One Web
Mission
Operational Commercial Communications
Bus & Motor
ARROW, Unknown motor
Mass
148 kg wet, ~140 kg dry
Launch date (UTC)
2021-04-25 (5 years ago)
Launch vehicle
SOYUZ-2-1B
Launch site
Vostochny Cosmodrome (VOSTO)
Object type
Payload
Rocket body
Debris
Shape & HBR
Trap Box + 2 Pan, 6.7 m
Radar Cross Section
3.464 m², Large (>1 m²)

Expand to show TLE details & history
Last TLE update: 2 days ago

TLE from 2 days ago
0 ONEWEB-0165
1 48233U 21031Z   26171.39814183  .00000149  00000-0  36830-3 0  9998
2 48233  87.8971 289.0708 0002027 112.0722 248.0623 13.14501700248788
Epoch: 2026-06-20T09:33Z
TLE epoch observation values (Epoch: 2026-06-20T09:33:19.454Z)
Latitude
-0.00001°
Longitude
-122.8736°
Altitude
1,209.263 km
Speed
7.249 km/s
True Right ascension
19h 16m 16s
True Declination
0° 00' 00"
Sunlit
Object was in full shadow at epoch
Visualization orbit readout
Latitude
Unknown
Longitude
Unknown
Altitude
Unknown
Speed
Unknown
Apparent Right ascension
Unknown
Apparent Declination
Unknown
Sunlit
N/A
Visualization observer readout
Local Sidereal Time
21:36:05
Azimuth
Unknown
Elevation
Unknown
Doppler factor
Unknown
Orbital elements
Apogee altitude
1,204.445 km
Perigee altitude
1,201.372 km
Semi-major axis
7,581.045 km
Eccentricity
0.0002
Inclination
87.8971°
RAAN
289.0708°
Arg. of periapsis
112.0722°
True anomaly
248.04076°
Mean anomaly
248.0623°
Eccentric anomaly
248.05153°
Mean motion
3.28813 °/min
Orbital period
109.48 mins
BSTAR
0.0003683
Loading maneuver chart data...
Computing Atmospheric mass density...
Loading historical data...
Loading historical data...
Loading historical data...
Loading historical data...
Loading historical data...
Loading historical data...
Loading historical data...

Documentation

Showing up to 5 results
|